Weather in Lokhvytsia

Ukraine / Poltava Region     50°21′27″N   33°15′56″E
temp.,
°C
wind,
m/s
gust,
m/s
humid.,
%
clouds,
%
prec.,
mm/h
press.,
hPa
HPBL,
m
18 august, thu
thu1800:00+20ne246662 0.0 100962
03:00+19ene495937 0.0 1009184
06:00+20ene385598 0.0 1009247
09:00+23ne56445 0.0 1010560
12:00+28ne56363 0.0 10091170
15:00+30ne55330 0.0 10091668
18:00+29ne56350 0.0 10091733
21:00+23nne411530 0.0 1009232
19 august, fri
fri1900:00+20nne49630 0.0 1010214
03:00+19ne511735 0.0 1010273
06:00+18ne511790 0.0 1011352
09:00+22ne67650 0.0 1012674
12:00+27ne665010 0.0 10121309
15:00+29ne544351 0.0 10111914
18:00+26n7951100 0.0 1011616
21:00+22ene6126774 0.0 1012444
20 august, sat
sat2000:00+20ene496977 0.0 1013425
03:00+18ene59800 0.0 1013296
06:00+15ne37871 0.0 1014206
09:00+21ene45640 0.0 1014488
12:00+28e45470 0.0 10131262
15:00+30ese4543100 0.3 10122263
18:00+26e375497 0.3 1012243
21:00+19ene487547 1.7 1014164
21 august, sun
sun2100:00+17ene367310 0.1 101492
03:00+17ene346420 0.1 101356
06:00+17e38824 0.0 1013145
09:00+22se6107256 1.4 1014666
12:00+26ese7836100 0.0 1014956
15:00+26ese683053 0.0 10141285
18:00+27ene353297 0.0 1012116
21:00+24e5143197 0.0 1012331
22 august, mon
mon2200:00+20e5143156 0.0 1013258
03:00+19e4123288 0.0 1013209
06:00+20e5122857 0.0 1013274
09:00+24ese7112779 0.0 1014666
12:00+29ese7101984 0.0 10131691
15:00+31ese8112056 0.0 10132455
18:00+31e7122364 0.0 10122548
21:00+23e373993 0.1 1013102